User: anonymous   Login
Location: Unspecified
(0.0000°N, 0.0000°E)
Time: 20:04:18
(UTC+00:00)
Language:

TBA - TO BE ASSIGNED - Orbit

View from above orbital plane
View from above orbital plane
View from above satellite
View from above satellite

Ground track
Ground track

The orbit is defined by the following mean orbital elements,

1 68288U          26145.50585816 +.00000000 +00000-0 +72980-3 0 00000
2 68288  53.1588 321.6305 0000531 323.8710  36.2256 15.34412110    03
Epoch (UTC): 25 May 2026 12:08:26
Eccentricity: 0.0000531
inclination: 53.1588°
perigee height: 462 km
apogee height: 463 km
right ascension of ascending node: 321.6305°
argument of perigee: 323.8710°
revolutions per day: 15.34412110
mean anomaly at epoch: 36.2256°

The dashed part of the orbit path shows where the satellite is in the earth's shadow,  

DLR